Temperature
7 7 7 7 7 7 7 8 8 7 7 7 7 7 7 7 7 7 7 7 6 6 6 6 6 5 5 5 5 4 4 4 3 3 4 3 3 3 3 3 3 3 3
6 6 6 6 7 7 7 7 7 7 7 7 7 7 7 7 6 6 6 6 6 6 5 5 5 5 5 5 4 4 4 3 3 3 3 3 3 2 2 2 2 2 2
6 6 6 6 6 6 6 6 6 7 7 7 7 6 6 6 6 6 6 6 5 5 5 5 5 4 4 4 4 4 3 3 3 3 2 2 2 2 2 2 2 2 2
5 5 5 5 5 6 6 6 6 6 6 6 6 6 6 6 6 5 5 5 5 5 5 4 4 4 4 4 3 3 3 3 2 2 2 2 1 1 1 1 1 2 2
4 4 5 5 5 5 5 5 5 5 5 6 6 5 5 5 5 5 5 5 5 5 4 4 4 4 4 3 3 3 3 2 2 2 1 1 1 1 1 1 1 1 1
4 4 4 4 4 4 4 5 5 5 5 5 5 5 5 5 5 5 5 5 4 4 4 4 4 3 3 3 3 2 2 2 1 1 1 1 1 1 0 0 0 0 0
3 3 3 4 4 4 4 4 4 4 4 4 4 5 5 5 4 4 4 4 4 4 4 3 3 3 3 3 2 2 2 2 1 1 1 1 0 0 -0 -0 -0 -0 -0
3 3 3 3 3 3 3 3 4 4 4 4 4 4 4 4 4 4 4 4 4 3 3 3 3 3 2 2 2 2 2 1 1 1 1 0 0 0 -0 -0 -0 -0 -0
2 3 3 3 3 3 3 3 3 3 3 4 4 4 4 4 3 3 3 3 3 3 3 2 2 2 2 2 2 1 1 1 1 1 0 0 0 0 0 -0 -0 -1 -1
2 2 2 2 2 2 2 3 3 3 3 3 3 3 3 3 3 3 3 3 3 2 2 2 2 2 1 1 1 1 1 0 0 0 0 0 0 0 0 -0 -1 -1 -1
1 2 2 2 2 2 2 2 2 2 3 3 3 3 3 3 3 2 2 2 2 2 2 2 2 1 1 1 1 0 0 0 -0 -0 -0 0 -0 -0 -0 -0 -1 -1 -1
1 1 1 1 1 1 1 2 2 2 2 2 2 2 2 2 2 2 2 2 1 1 1 1 1 1 0 0 0 0 -0 -0 -0 -0 -0 -0 -0 -0 -0 -1 -1 -1 -1
0 1 1 1 1 1 1 1 1 1 1 1 1 2 2 1 1 1 1 1 1 1 1 1 0 0 0 0 0 -0 -0 -0 -0 -1 -1 -1 -1 -1 -1 -1 -1 -1 -1
-0 0 0 0 0 0 0 0 0 1 1 1 1 1 1 1 1 1 1 1 1 1 0 0 0 -0 -0 -0 -0 -0 -1 -1 -1 -1 -1 -1 -1 -1 -1 -1 -1 -1 -1
-1 -0 -0 -0 -0 -0 -0 -0 -0 0 -0 0 0 0 0 1 1 0 0 0 0 0 -0 -0 -0 -0 -0 -0 -1 -1 -1 -1 -1 -2 -1 -2 -1 -1 -1 -1 -1 -2 -2
-1 -1 -1 -1 -1 -1 -1 -0 -1 -1 -1 -0 -0 -0 0 0 0 -0 -0 -0 -0 -0 -0 -0 -1 -1 -1 -1 -1 -1 -1 -2 -2 -2 -2 -2 -2 -2 -2 -2 -2 -2 -2
-1 -1 -1 -1 -1 -1 -1 -1 -1 -1 -1 -1 -1 -1 -1 -1 -1 -1 -1 -1 -1 -1 -1 -1 -1 -1 -1 -1 -2 -2 -2 -2 -2 -2 -2 -2 -2 -2 -2 -2 -2 -2 -2
-2 -2 -2 -2 -2 -2 -2 -2 -2 -2 -1 -1 -1 -1 -1 -1 -1 -1 -1 -1 -1 -1 -1 -1 -1 -1 -2 -2 -2 -2 -2 -2 -2 -2 -2 -2 -2 -2 -2 -2 -2 -2 -2
-2 -2 -2 -2 -2 -2 -2 -2 -2 -2 -2 -2 -2 -2 -2 -2 -2 -2 -2 -2 -2 -2 -1 -2 -2 -2 -2 -2 -2 -2 -2 -2 -3 -3 -3 -2 -2 -2 -2 -2 -2 -3 -3
-3 -3 -3 -3 -3 -3 -3 -3 -3 -3 -3 -2 -2 -2 -2 -2 -2 -2 -2 -2 -2 -2 -2 -2 -2 -2 -2 -2 -2 -2 -3 -3 -3 -3 -3 -3 -2 -2 -2 -2 -3 -3 -3
-4 -3 -3 -3 -3 -3 -3 -3 -3 -3 -3 -3 -3 -3 -3 -3 -2 -2 -2 -2 -2 -2 -2 -2 -2 -2 -2 -2 -3 -3 -3 -3 -3 -3 -3 -3 -3 -3 -3 -3 -3 -3 -3
-4 -4 -4 -4 -4 -4 -4 -4 -4 -4 -4 -3 -3 -3 -3 -3 -3 -3 -3 -3 -3 -3 -3 -3 -3 -3 -3 -3 -3 -3 -3 -3 -3 -3 -3 -3 -3 -3 -3 -3 -3 -3 -3
-5 -5 -5 -5 -5 -5 -5 -4 -4 -4 -4 -4 -4 -4 -4 -3 -3 -3 -3 -3 -3 -3 -3 -3 -3 -3 -3 -3 -3 -3 -3 -3 -3 -3 -3 -3 -3 -3 -3 -3 -3 -3 -3
-5 -5 -5 -5 -5 -5 -5 -5 -5 -5 -5 -4 -4 -4 -4 -4 -4 -4 -3 -3 -3 -3 -3 -3 -3 -3 -3 -3 -3 -3 -3 -3 -3 -3 -3 -3 -3 -3 -3 -3 -3 -3 -3
-6 -6 -6 -6 -6 -6 -6 -6 -6 -5 -5 -5 -5 -5 -4 -4 -4 -4 -4 -4 -4 -4 -4 -4 -4 -3 -3 -3 -3 -3 -3 -3 -3 -3 -3 -3 -3 -3 -3 -3 -3 -3 -3
-7 -7 -7 -7 -6 -6 -6 -6 -6 -6 -6 -5 -5 -5 -5 -4 -4 -4 -4 -4 -4 -4 -4 -4 -4 -4 -4 -3 -3 -3 -3 -3 -3 -3 -3 -3 -3 -3 -3 -3 -3 -3 -3
Wind_Speed
1 2 2 2 3 3 3 3 3 3 4 5 5 5 5 5 4 4 4 4 4 3 2 3 2 1 1 1 1 1 1 1 4 5 4 5 5 6 9 10 11 11 11
1 1 2 2 3 3 3 3 3 3 3 4 5 5 5 5 5 5 5 5 5 4 3 3 2 2 1 1 1 1 1 2 3 6 6 5 5 6 6 7 9 10 10
0 1 1 2 3 3 3 3 3 3 3 3 4 5 5 5 4 4 5 5 5 4 4 4 3 3 1 1 1 1 2 2 2 3 6 5 5 5 6 7 6 7 9
1 1 1 1 2 2 2 3 3 3 3 4 4 4 5 4 4 4 4 4 4 3 3 3 3 3 3 2 2 2 1 1 2 3 5 5 5 5 5 6 7 6 7
1 1 1 1 1 2 2 2 2 3 3 3 3 3 4 4 4 4 4 4 3 3 2 2 3 3 3 2 2 2 1 1 2 3 4 5 6 5 6 5 7 8 7
0 0 0 1 1 2 2 2 2 2 2 2 2 3 3 3 5 6 4 4 3 3 2 2 2 2 2 2 3 3 2 2 3 3 4 5 6 6 6 6 7 8 6
0 0 1 1 1 1 2 3 3 2 2 2 2 2 3 3 4 5 5 4 4 3 3 2 1 1 1 1 2 3 3 5 5 4 5 6 6 6 6 7 7 7 7
1 1 1 1 1 1 2 2 2 2 2 2 2 2 2 2 4 4 4 3 3 2 3 3 2 2 2 1 1 1 2 3 4 3 3 5 5 5 5 6 6 6 6
1 1 0 0 1 1 2 2 1 1 1 1 1 2 2 2 3 4 4 3 2 1 1 2 2 2 3 2 0 1 2 3 4 5 6 7 8 9 7 4 4 5 6
1 1 1 0 1 1 1 1 1 1 2 2 1 1 2 2 3 4 4 2 2 1 1 1 2 2 3 2 1 1 3 3 3 4 5 6 6 6 7 4 3 4 5
2 1 1 0 0 1 1 1 1 1 2 2 1 1 1 2 3 4 4 2 3 2 1 1 1 2 2 2 2 2 3 3 2 2 3 4 4 4 4 4 3 3 4
2 1 1 1 1 1 1 1 1 2 2 1 1 1 1 1 1 3 3 2 2 2 2 1 1 2 2 2 2 2 2 2 1 2 3 4 4 5 5 5 5 5 5
2 2 1 1 1 1 1 1 1 1 1 1 1 1 0 0 0 1 2 2 2 1 1 1 1 1 2 2 2 2 2 1 1 2 3 4 4 4 5 5 5 5 5
2 2 1 1 1 1 1 1 1 1 1 1 1 1 1 0 0 1 1 1 1 1 1 1 1 2 3 3 2 2 2 1 2 2 3 4 4 4 4 4 5 5 5
1 1 1 1 1 1 1 0 1 1 2 2 2 2 2 2 2 2 1 1 1 2 2 2 2 1 2 2 2 2 2 2 2 2 3 4 4 4 4 4 4 4 4
1 1 1 1 1 1 1 2 3 1 1 1 0 1 1 1 2 2 1 1 2 3 2 2 1 0 0 1 1 2 2 2 3 3 3 3 4 4 4 4 4 4 5
1 1 0 0 1 1 0 0 1 3 3 2 2 2 1 0 1 2 2 3 3 3 2 1 0 0 1 1 1 2 2 3 3 3 3 3 3 4 4 4 4 4 5
1 1 1 0 0 1 1 0 0 0 1 2 2 2 2 1 1 2 3 3 2 2 1 1 0 0 1 1 1 2 2 2 3 3 3 3 3 3 4 4 4 5 5
1 0 0 1 0 0 0 0 0 0 0 1 1 2 2 2 2 3 3 2 2 1 0 0 0 1 1 1 1 2 2 2 3 3 3 3 3 3 3 4 4 5 5
1 1 1 0 0 0 1 1 0 0 0 0 1 1 1 1 1 1 1 1 1 1 1 0 1 1 1 1 1 2 2 2 2 2 3 3 3 3 3 4 4 4 4
1 1 2 1 0 0 0 0 0 0 0 1 1 1 1 0 0 0 0 0 1 1 1 1 1 1 1 1 1 2 2 3 2 2 2 3 3 3 3 3 3 4 4
1 1 1 1 1 0 0 0 0 0 0 1 1 1 2 1 0 0 0 0 0 0 1 1 1 1 1 1 1 2 2 3 3 3 3 3 3 3 3 3 3 3 3
1 1 1 1 1 1 1 0 0 0 1 1 1 1 1 1 1 1 1 1 1 1 1 0 1 1 1 1 2 2 3 3 3 3 3 2 2 3 3 3 3 3 4
1 1 1 1 1 1 0 0 0 0 1 1 1 1 1 1 1 1 1 1 1 1 1 1 1 2 2 2 2 3 4 4 4 3 3 2 2 2 2 2 3 3 3
1 1 1 1 1 1 1 0 1 1 1 1 1 1 1 1 1 1 1 1 1 1 1 2 2 2 2 3 3 4 5 5 4 2 1 1 2 2 2 2 2 3 3
0 0 0 1 1 1 1 1 1 1 1 1 1 1 1 1 1 1 1 1 1 1 2 2 3 3 3 3 4 4 4 4 3 3 1 1 1 2 2 2 2 2 2
Wind_Direction
195 193 180 184 173 160 166 176 177 169 163 170 172 168 165 167 164 158 164 167 168 171 168 173 186 190 188 196 192 205 231 229 270 292 292 304 308 314 325 329 328 328 327
198 189 183 169 158 158 167 171 168 170 173 174 169 170 170 170 169 170 174 176 178 179 180 176 188 182 186 185 197 234 259 255 259 290 304 309 305 309 316 317 324 325 325
128 141 156 161 162 170 173 167 166 167 167 164 162 169 170 170 173 175 174 178 183 182 181 185 192 179 197 217 227 243 269 285 278 285 301 306 306 312 318 316 314 318 324
79 135 172 185 180 175 163 161 166 165 165 167 168 172 168 168 173 170 164 168 174 178 182 188 191 193 205 214 232 236 258 300 308 301 303 307 309 311 317 321 322 324 323
78 158 197 181 162 148 148 155 153 156 162 160 155 162 160 165 175 174 170 167 165 167 173 187 200 208 220 230 249 243 245 281 299 303 304 310 314 322 321 316 316 318 316
48 219 101 106 131 147 153 150 145 144 138 132 152 166 166 178 182 179 169 163 165 169 180 201 217 211 229 262 277 280 275 276 286 293 300 302 306 307 308 311 315 321 317
28 50 90 128 148 164 157 146 153 154 142 144 164 166 167 180 180 178 169 153 164 177 182 190 228 232 245 228 289 308 301 301 290 283 288 291 295 299 303 306 309 310 303
44 39 60 102 157 150 146 146 146 144 154 162 169 170 163 183 175 169 157 143 157 176 185 189 197 211 238 245 309 320 308 305 299 297 278 284 290 293 290 293 298 303 296
14 345 345 131 166 159 155 153 139 142 155 162 167 169 170 179 172 162 148 139 150 173 190 188 188 204 249 287 319 302 316 320 329 325 316 315 315 317 318 318 317 318 314
328 309 306 251 195 191 172 150 126 150 162 152 143 174 173 174 175 159 145 141 148 163 190 205 219 234 252 280 254 245 287 306 322 334 339 335 334 329 329 323 301 303 308
338 351 354 351 223 167 132 116 127 122 123 127 122 105 136 158 174 168 159 152 162 164 186 235 252 264 270 284 293 265 282 309 317 327 329 331 333 335 335 334 312 284 289
3 13 5 14 44 83 112 93 111 123 131 137 118 75 69 126 162 178 172 161 153 165 199 220 247 270 299 315 329 319 332 352 348 339 334 330 330 328 325 326 318 307 284
15 19 16 27 46 80 120 128 111 122 138 162 168 179 155 43 209 180 180 170 159 153 184 212 267 311 359 1 359 3 8 8 345 334 323 317 315 311 316 320 321 322 314
18 9 19 41 47 54 86 134 153 172 181 187 194 192 184 184 184 189 185 178 152 118 112 124 82 60 34 15 14 15 1 330 325 309 311 313 316 319 321 323 323 326 326
12 7 25 44 69 64 47 19 235 232 224 216 211 193 188 208 223 205 180 180 173 162 118 95 77 57 38 24 12 8 0 355 347 333 323 322 323 327 326 329 327 330 331
12 7 26 52 66 73 61 20 10 356 315 274 239 200 239 233 214 194 178 165 153 142 109 122 105 52 12 350 344 345 345 338 333 326 320 318 322 327 330 332 334 335 333
326 323 2 74 104 94 92 70 1 7 20 28 54 43 31 43 173 157 154 147 145 125 101 133 146 283 316 323 323 324 320 318 319 316 312 314 321 327 329 335 339 338 335
344 333 335 263 202 195 200 222 232 308 355 359 8 26 40 50 114 131 130 119 121 90 104 145 184 264 306 314 315 321 323 325 325 320 317 318 323 327 331 336 335 332 331
344 314 300 282 251 220 184 159 132 338 30 11 4 6 16 39 78 115 115 125 148 141 88 94 257 266 288 305 311 311 305 302 306 313 317 317 323 328 328 330 330 332 335
350 350 356 349 51 80 88 104 96 97 38 25 0 343 352 43 66 71 62 113 144 158 179 224 282 285 288 294 301 301 303 301 303 309 314 319 323 322 323 325 329 333 335
348 346 355 3 12 101 126 160 184 205 283 314 312 309 331 50 129 1 17 137 173 205 216 235 260 271 275 273 281 287 296 303 304 304 309 315 316 317 323 325 326 330 331
330 336 338 329 330 345 30 110 130 184 240 278 306 328 347 24 44 303 318 336 326 297 251 241 253 258 252 252 260 276 286 295 299 299 302 311 316 320 323 326 330 332 335
333 324 333 344 338 340 7 35 85 209 245 265 285 326 342 344 326 319 328 332 339 343 350 317 277 291 312 296 266 258 264 270 274 279 293 303 311 312 314 317 322 325 330
276 280 299 319 332 332 345 342 312 255 244 263 279 304 310 313 320 328 336 345 349 350 358 349 308 292 304 312 298 282 273 273 272 261 267 282 295 304 310 312 316 315 319
247 257 271 286 303 297 276 279 287 283 275 268 281 300 314 332 337 333 336 342 354 352 344 341 332 319 309 310 307 302 296 297 297 288 257 270 288 294 302 301 306 316 319
245 257 273 275 270 264 250 242 253 263 272 274 274 275 288 305 313 316 326 343 353 348 340 340 333 328 318 314 306 305 307 310 314 313 306 282 296 303 303 304 308 312 319
Height
1464 1466 1468 1470 1471 1473 1475 1478 1480 1482 1484 1485 1487 1489 1490 1492 1493 1494 1496 1497 1498 1499 1500 1501 1501 1501 1501 1501 1501 1501 1500 1498 1495 1492 1491 1489 1487 1484 1481 1479 1476 1472 1469
1462 1463 1465 1467 1469 1470 1473 1475 1477 1479 1481 1483 1484 1485 1487 1489 1490 1491 1493 1494 1495 1496 1497 1498 1498 1498 1498 1498 1498 1497 1496 1495 1493 1489 1487 1485 1483 1481 1478 1475 1472 1469 1466
1459 1461 1462 1464 1466 1467 1470 1472 1474 1476 1478 1480 1481 1483 1484 1486 1487 1489 1490 1491 1492 1493 1494 1495 1495 1495 1495 1495 1494 1493 1493 1492 1490 1487 1483 1482 1479 1477 1474 1471 1469 1466 1463
1457 1458 1460 1461 1463 1465 1467 1469 1472 1474 1475 1477 1478 1480 1482 1483 1485 1486 1487 1488 1490 1490 1491 1492 1492 1492 1492 1491 1491 1490 1489 1488 1486 1484 1481 1478 1476 1474 1471 1467 1464 1462 1459
1455 1456 1458 1460 1461 1463 1465 1467 1469 1471 1473 1474 1476 1477 1479 1481 1482 1483 1484 1486 1487 1487 1488 1489 1489 1489 1488 1488 1488 1487 1486 1484 1483 1481 1478 1475 1473 1470 1468 1464 1461 1458 1455
1453 1455 1456 1458 1459 1461 1462 1464 1466 1468 1470 1471 1473 1475 1476 1478 1480 1481 1482 1483 1484 1484 1485 1485 1486 1485 1485 1485 1485 1484 1483 1482 1480 1478 1475 1473 1470 1468 1465 1462 1459 1455 1451
1452 1453 1454 1456 1457 1459 1460 1462 1464 1465 1467 1469 1471 1472 1474 1475 1477 1478 1479 1480 1481 1481 1482 1482 1482 1482 1482 1482 1481 1480 1480 1479 1478 1476 1473 1470 1468 1465 1462 1459 1457 1453 1450
1451 1451 1453 1454 1455 1456 1458 1460 1461 1463 1465 1467 1468 1469 1471 1473 1474 1475 1476 1477 1477 1478 1479 1479 1479 1479 1479 1478 1477 1477 1476 1475 1474 1472 1470 1468 1466 1463 1460 1458 1454 1451 1447
1449 1450 1451 1452 1453 1454 1456 1457 1459 1461 1462 1464 1465 1467 1468 1469 1471 1472 1473 1473 1474 1475 1475 1476 1476 1476 1476 1475 1474 1473 1472 1471 1470 1469 1467 1465 1463 1461 1458 1455 1451 1448 1443
1448 1449 1450 1451 1452 1453 1454 1455 1457 1458 1460 1461 1462 1464 1465 1466 1468 1469 1470 1470 1471 1472 1472 1472 1473 1473 1472 1472 1471 1470 1469 1468 1466 1465 1464 1462 1460 1457 1455 1452 1449 1446 1442
1447 1448 1449 1450 1450 1451 1452 1453 1455 1456 1457 1458 1460 1461 1462 1463 1465 1466 1467 1467 1468 1468 1469 1469 1470 1470 1469 1469 1469 1468 1467 1465 1463 1462 1460 1458 1456 1454 1452 1449 1447 1444 1441
1446 1447 1447 1448 1449 1450 1451 1452 1453 1453 1455 1456 1457 1458 1459 1460 1462 1463 1464 1465 1465 1466 1466 1467 1467 1467 1467 1466 1466 1465 1464 1463 1461 1459 1457 1455 1453 1451 1449 1446 1444 1442 1439
1444 1445 1446 1447 1447 1448 1449 1450 1450 1451 1452 1453 1454 1455 1456 1458 1459 1460 1461 1462 1462 1463 1463 1464 1464 1464 1464 1463 1463 1462 1461 1460 1458 1457 1455 1453 1451 1449 1446 1444 1441 1439 1437
1443 1444 1444 1445 1446 1447 1447 1448 1449 1449 1450 1450 1451 1452 1453 1455 1456 1457 1458 1459 1459 1460 1461 1461 1461 1461 1461 1461 1460 1459 1459 1458 1456 1455 1453 1451 1449 1447 1445 1442 1439 1437 1434
1442 1442 1443 1444 1444 1445 1446 1447 1447 1448 1448 1449 1449 1450 1451 1452 1454 1455 1455 1456 1457 1457 1458 1458 1458 1458 1458 1458 1457 1457 1456 1455 1454 1453 1451 1449 1447 1445 1443 1441 1438 1435 1432
1441 1441 1442 1442 1443 1443 1444 1444 1445 1446 1446 1447 1448 1449 1449 1451 1451 1452 1453 1454 1454 1455 1456 1456 1456 1456 1455 1455 1455 1454 1454 1453 1452 1451 1450 1448 1446 1444 1441 1439 1437 1434 1431
1440 1440 1440 1441 1441 1442 1442 1442 1442 1443 1444 1445 1445 1446 1447 1448 1449 1450 1451 1451 1452 1453 1453 1453 1454 1454 1453 1453 1453 1453 1452 1452 1451 1450 1448 1446 1444 1443 1440 1438 1436 1433 1430
1439 1439 1439 1440 1440 1440 1441 1441 1441 1441 1441 1442 1443 1444 1445 1446 1447 1447 1448 1449 1450 1451 1451 1451 1451 1451 1451 1451 1451 1451 1450 1450 1449 1448 1446 1445 1443 1442 1439 1437 1435 1432 1429
1437 1437 1438 1438 1438 1439 1439 1440 1440 1440 1440 1441 1441 1442 1443 1444 1445 1446 1446 1447 1447 1448 1449 1449 1450 1450 1450 1450 1450 1449 1449 1448 1447 1446 1445 1443 1442 1440 1438 1436 1434 1431 1429
1436 1436 1436 1436 1437 1437 1437 1438 1438 1439 1439 1439 1440 1440 1441 1442 1442 1443 1444 1445 1446 1446 1447 1447 1448 1448 1448 1448 1448 1447 1447 1446 1445 1444 1443 1442 1441 1439 1437 1435 1433 1431 1428
1434 1434 1435 1435 1435 1435 1436 1436 1437 1437 1437 1438 1438 1439 1440 1440 1441 1442 1442 1443 1444 1445 1445 1446 1446 1446 1446 1446 1446 1445 1445 1444 1444 1443 1442 1441 1439 1438 1436 1434 1432 1430 1428
1432 1432 1433 1433 1433 1433 1434 1434 1435 1435 1436 1436 1437 1437 1438 1439 1439 1440 1441 1442 1442 1443 1443 1444 1444 1444 1444 1444 1443 1443 1443 1442 1442 1441 1440 1439 1438 1436 1435 1433 1431 1429 1427
1431 1431 1431 1431 1431 1432 1432 1433 1433 1434 1434 1435 1435 1436 1436 1437 1438 1439 1439 1440 1441 1441 1441 1442 1442 1442 1442 1442 1442 1442 1441 1441 1440 1440 1439 1438 1436 1435 1433 1432 1430 1429 1427
1429 1429 1429 1429 1430 1430 1430 1431 1431 1432 1432 1433 1433 1434 1435 1436 1436 1437 1438 1438 1439 1439 1440 1440 1440 1440 1440 1440 1440 1440 1439 1439 1438 1438 1437 1436 1435 1434 1432 1431 1429 1428 1426
1427 1427 1428 1428 1428 1428 1429 1429 1430 1430 1431 1431 1431 1432 1433 1434 1435 1435 1436 1436 1437 1437 1438 1438 1438 1438 1438 1438 1438 1438 1438 1437 1437 1436 1435 1434 1433 1432 1431 1429 1428 1427 1425
1426 1426 1426 1426 1427 1427 1427 1428 1428 1429 1429 1429 1430 1431 1431 1432 1433 1434 1434 1435 1435 1436 1436 1437 1437 1437 1437 1436 1436 1436 1436 1436 1435 1435 1434 1433 1432 1431 1430 1428 1427 1426 1425